Regional Weather Roundup
Issued by NWS

Home | Current Version | Previous Version | Graphics & Text | Print | Product List | Glossary On
Versions: 1 2 3 4 5 6 7 8 9 10 11 12 13 14 15 16 17 18 19 20 21 22 23 24 25 26 27 28 29 30 31 32 33 34 35 36 37 38 39 40 41 42 43 44 45 46 47 48 49 50
000
ASUS45 KTFX 211304
RWRMT
MONTANA HOURLY WEATHER ROUNDUP
NATIONAL WEATHER SERVICE GREAT FALLS MT
604 AM MST SUN DEC 21 2014

NOTE: "FAIR" INDICATES FEW OR NO CLOUDS BELOW 12000 FEET WITH NO
SIGNIFICANT WEATHER AND/OR OBSTRUCTIONS TO VISIBILITY.

* THESE STATIONS ARE NOT UNDER NWS QUALITY CONTROL. THEY DO NOT
   REPORT WEATHER SUCH AS PRECIPITATION OR FOG.

MTZ001>007-043-211400-
WEST OF THE DIVIDE
CITY           SKY/WX    TMP DP  RH WIND       PRES   REMARKS
KALISPELL      CLOUDY    36  36 100 S8        29.44R WCI  30
MISSOULA       FOG       32  32 100 CALM      29.53R VSB 3
BUTTE          LGT RAIN  36  30  79 CALM      29.53S
MULLAN PASS    MOCLDY   N/A N/A N/A N/A       29.48R
* ESSEX        N/A       32  31  96 W2         N/A
* LINCOLN      N/A       32  31  96 S1         N/A
* POLSON       N/A       34  34 100 S2G9       N/A
* RONAN APT    MOCLDY    37  37 100 SE9        N/A   WCI  30
* SEELEY LAKE  N/A       29  28  96 N/A        N/A
* THOMP F APT  MOCLDY    28  27  96 SE3        N/A
$$

MTZ008-052>055-211400-
SOUTHWEST MONTANA
CITY           SKY/WX    TMP DP  RH WIND       PRES   REMARKS
BOZEMAN        CLOUDY    39  28  65 N5        29.51F WCI  35
DILLON         CLOUDY    36  30  79 S6        29.55F WCI  31
* W YELLOWSTON CLOUDY    28  26  92 SW5G16     N/A   WCI  22
* THREE FORKS  PTCLDY    39  39 100 N/A        N/A
* BOULDER HILL N/A       32  28  85 SW14       N/A   WCI  22
* MONIDA PASS  N/A       27  27 100 SE16       N/A   WCI  15
* RAYNOLDS PAS N/A       29  17  61 S15        N/A   WCI  18
* WHITEHALL    N/A       41  31  68 SW18G31    N/A
* WISE RIVER   N/A       31  30  96 SW1G7      N/A
$$

MTZ009>010-012-014-046-048-049-054-211400-
EAST SLOPES AND CENTRAL MONTANA
CITY           SKY/WX    TMP DP  RH WIND       PRES   REMARKS
CUT BANK       MOCLDY    39  30  70 W20       29.28R WCI  29
GREAT FALLS    MOCLDY    39  34  82 SW17G26   29.35S WCI  30
HELENA         N/A       36  32  85 CALM      29.45F
* DEARBORN     N/A       45  33  63 S3G17      N/A
* EAST GLACIER N/A       34  32  92 W35G47     N/A   WCI  19
* MONARCH      N/A       38  24  57 SW16G27    N/A   WCI  29
* PENDROY      N/A       42  29  60 NW5G10     N/A
* ROGERS PASS  N/A       32  31  96 E9G17      N/A   WCI  24
* SWEET GRASS  N/A       34  29  82 S14G19     N/A   WCI  24
$$

MTZ011-013-016-021-035-040-045-047-050-051-211400-
NORTH CENTRAL MONTANA
CITY           SKY/WX    TMP DP  RH WIND       PRES   REMARKS
HAVRE          N/A       30  25  82 SW6       29.31F WCI  24
LEWISTOWN      CLOUDY    41  30  65 SW20      29.36F
* N BAR RANCH  MOCLDY    32  23  69 SE6       29.38F WCI  26
* CHESTER      N/A       28  24  85 N/A        N/A
* DENTON       N/A       37  32  82 S9         N/A   WCI  30
* GEYSER       N/A       43  27  53 SW32G40    N/A
* JUDITH GAP   N/A       36  31  82 S14        N/A   WCI  27
* LOMA         N/A       45  32  60 SW14G21    N/A
$$

MTZ017>020-022>027-061-062-211400-
NORTHEAST MONTANA
CITY           SKY/WX    TMP DP  RH WIND       PRES   REMARKS
GLASGOW        PTCLDY    21  18  88 E14       29.41F WCI   8
GLENDIVE       CLEAR     21  19  92 SW6       29.50F WCI  13
JORDAN         MOCLDY    21  19  92 E3        29.40F
SIDNEY         CLEAR     18  16  92 CALM      29.52F
WOLF POINT     CLEAR     18  14  84 E5        29.47F WCI  11
* BEAVER HILL  N/A       33  24  70 S14        N/A   WCI  23
* CIRCLE       N/A       31  25  78 N/A        N/A
* LINDSAY DVD  N/A       25  22  88 SE5        N/A   WCI  19
* SACO         N/A       19  17  92 E5         N/A   WCI  12
$$

MTZ028>042-056>058-211400-
SOUTHCENTRAL AND SOUTHEAST MONTANA
CITY           SKY/WX    TMP DP  RH WIND       PRES   REMARKS
BAKER          CLEAR     21  19  92 E7        29.52F WCI  12
BILLINGS       CLOUDY    39  23  53 SW8       29.45F WCI  33
LIVINGSTON     CLOUDY    45  27  49 SW22G44   29.47S
MILES CITY     CLOUDY    27  23  85 SE10      29.46F WCI  18
* LAUREL APT   CLOUDY    39  18  43 N/A        N/A
* ROUNDUP APT  CLOUDY    37  21  52 S11G17     N/A   WCI  29
* ALZADA       N/A       30  23  75 E2         N/A
* HYSHAM       N/A       38  18  44 W4G9       N/A
* LAME DEER    N/A       36  17  46 SW7        N/A   WCI  30
* REED POINT   N/A       27  24  88 E1         N/A
* ROSCOE HILL  N/A       43  14  31 SE2G12     N/A
$$

REGIONAL REPORTS...DAKOTAS
CITY           SKY/WX    TMP DP  RH WIND       PRES   REMARKS
WILLISTON      CLEAR     14  12  92 CALM      29.52F
DICKINSON      CLEAR     23  18  81 S8        29.51F WCI  14
BEACH          CLEAR     25  25 100 S9        29.51F WCI  16
CROSBY         CLEAR     18  18 100 S9        29.51F WCI   7
WATFORD CITY   CLEAR     18  16  92 SE3       29.50F
BISMARCK       CLOUDY    19  18  96 NE5       29.63F WCI  12
GRAND FORKS    FOG       30  28  92 S15       29.71F WCI  19
FARGO          FOG       32  28  85 S13       29.76F WCI  22
BUFFALO SD     CLEAR     27  19  72 S8        29.47F WCI  19
RAPID CITY     PTCLDY    23  19  85 CALM      29.56F
$$

REGIONAL REPORTS...WYOMING/IDAHO/WASHINGTON
CITY           SKY/WX    TMP DP  RH WIND       PRES   REMARKS
GILLETTE       PTCLDY    36  25  64 SW18G26   29.49F WCI  26
SHERIDAN       CLOUDY    23  18  81 VRB5      29.48F WCI  16
CODY           MOCLDY    43  25  49 W20G28    29.52R
YELLOWSTONE LA CLOUDY    27  23  85 W9G18     29.66F WCI  18
SALMON         CLOUDY    34  30  85 N12       29.60F WCI  25
MULLAN PASS    MOCLDY   N/A N/A N/A N/A       29.48S
SAND POINT     CLOUDY    36  36 100 CALM      29.49R
SPOKANE        PTCLDY    41  39  93 SW21      29.55R

$$



USA.gov is the U.S. government's official web portal to all federal, state and local government web resources and services.